Location: Newark
(35.8614°N, 139.6456°E)
Time: 20:42:26
(UTC+00:00)

Hubble Space Telescope - Visible Passes

Search period start: 09 December 2019 00:00
Search period end: 19 December 2019 00:00
Orbit: 536 x 540 km, 28.5° (Epoch: 08 December)

Date Brightness Start Highest point End Pass type
(mag) Time Alt. Az. Time Alt. Az. Time Alt. Az.
13 Dec 3.6 19:42:50 10° S 19:43:59 11° SSE 19:45:07 10° SE visible
14 Dec 3.4 19:31:55 12° S 19:33:16 13° SSE 19:35:18 10° SE visible
14 Dec 2.7 21:10:24 10° SW 21:13:52 26° S 21:17:21 10° ESE visible
15 Dec 3.2 19:22:21 16° SSE 19:22:34 16° SSE 19:25:06 10° SE visible
15 Dec 2.6 20:59:39 10° SW 21:03:12 27° S 21:06:45 10° ESE visible
16 Dec 3.2 19:12:40 17° SSE 19:12:40 17° SSE 19:14:45 10° ESE visible
16 Dec 2.4 20:48:57 10° WSW 20:52:32 29° S 20:56:08 10° ESE visible
17 Dec 3.4 19:02:53 16° SE 19:02:53 16° SE 19:04:18 10° ESE visible
17 Dec 2.3 20:38:16 10° WSW 20:41:52 29° S 20:45:29 10° ESE visible
18 Dec 3.7 18:53:01 14° ESE 18:53:01 14° ESE 18:53:47 10° ESE visible
18 Dec 2.3 20:28:22 14° SW 20:31:13 29° S 20:34:48 10° ESE visible
